EW8669 Weather Reports


Display with metric or nautical units.
time (UTC)temp
F
wind
direction
speed
MPH
gust
MPH
rain 1hr
in
rain 24hr
in
rain mn
in
humidity
%
barometer
mb
20200409050532 74 277 4.0 8.0 0.00 0.00 0.00 85 1011.5
20200409050121 74 285 4.0 9.0 0.00 0.00 0.00 85 1011.7
20200409050028 74 269 5.0 11.0 0.00 0.00 0.00 84 1011.7
20200409045533 74 282 6.0 13.0 0.00 0.00 0.00 83 1011.9
20200409045528 74 289 6.0 13.0 0.00 0.00 0.00 84 1011.8
20200409045022 75 272 8.0 13.0 0.00 0.00 0.00 83 1011.9
20200409045015 75 263 7.0 13.0 0.00 0.00 0.00 83 1011.9
20200409044547 75 254 8.0 14.0 0.00 0.00 0.00 83 1011.9
20200409044508 75 265 9.0 14.0 0.00 0.00 0.00 83 1011.9
20200409044052 75 285 7.0 14.0 0.00 0.00 0.00 83 1012.0
20200409044021 75 266 7.0 14.0 0.00 0.00 0.00 82 1012.0
20200409043546 75 271 6.0 11.0 0.00 0.00 0.00 83 1012.1
20200409043523 75 259 6.0 11.0 0.00 0.00 0.00 82 1012.1
20200409043059 75 300 6.0 11.0 0.00 0.00 0.00 83 1012.1
20200409043031 75 286 6.0 11.0 0.00 0.00 0.00 82 1012.3
20200409042523 75 284 6.0 10.0 0.00 0.00 0.00 82 1012.4
20200409042517 75 281 6.0 10.0 0.00 0.00 0.00 82 1012.2
20200409042028 75 275 7.0 13.0 0.00 0.00 0.00 81 1012.4
20200409041650 75 290 6.0 13.0 0.00 0.00 0.00 81 1012.2
20200409041547 75 283 7.0 13.0 0.00 0.00 0.00 81 1012.4
20200409041134 75 281 6.0 13.0 0.00 0.00 0.00 81 1012.2
20200409041055 75 280 8.0 13.0 0.00 0.00 0.00 80 1012.4
20200409040521 75 290 7.0 13.0 0.00 0.00 0.00 80 1012.5
20200409040512 75 278 7.0 13.0 0.00 0.00 0.00 80 1012.3
20200409040116 75 254 7.0 13.0 0.00 0.00 0.00 80 1012.7
20200409035553 75 273 5.0 11.0 0.00 0.00 0.00 80 1012.6
20200409035530 75 337 5.0 11.0 0.00 0.00 0.00 80 1012.8
20200409035037 76 279 5.0 11.0 0.00 0.00 0.00 80 1012.7
20200409035031 76 313 4.0 11.0 0.00 0.00 0.00 79 1012.9
20200409034536 76 277 6.0 11.0 0.00 0.00 0.00 79 1013.0
20200409034529 76 261 7.0 11.0 0.00 0.00 0.00 79 1012.7
20200409034020 76 272 4.0 13.0 0.00 0.00 0.00 79 1012.9
20200409034015 76 257 5.0 12.0 0.00 0.00 0.00 79 1012.8
20200409033603 76 294 6.0 13.0 0.00 0.00 0.00 79 1012.8
20200409033520 76 306 6.0 13.0 0.00 0.00 0.00 78 1012.9
20200409033141 76 283 8.0 15.0 0.00 0.00 0.00 78 1012.7
20200409033029 76 267 7.0 15.0 0.00 0.00 0.00 78 1012.9
20200409032534 76 271 9.0 15.0 0.00 0.00 0.00 78 1012.5
20200409032526 76 277 9.0 15.0 0.00 0.00 0.00 77 1012.8
20200409032031 76 276 9.0 14.0 0.00 0.00 0.00 77 1012.8
20200409032028 76 270 10.0 14.0 0.00 0.00 0.00 78 1012.5
20200409031525 77 267 7.0 12.0 0.00 0.00 0.00 77 1012.7
20200409031521 77 295 8.0 12.0 0.00 0.00 0.00 77 1012.5
20200409031057 77 258 8.0 12.0 0.00 0.00 0.00 77 1012.4
20200409031034 77 261 9.0 12.0 0.00 0.00 0.00 77 1012.7
20200409030552 77 261 7.0 12.0 0.00 0.00 0.00 77 1012.4
20200409030523 77 294 7.0 12.0 0.00 0.00 0.00 76 1012.7
20200409030043 77 277 6.0 11.0 0.00 0.00 0.00 77 1012.4
20200409030023 77 263 6.0 11.0 0.00 0.00 0.00 76 1012.6
20200409025527 77 311 5.0 10.0 0.00 0.00 0.00 76 1012.8
20200409025507 77 286 5.0 10.0 0.00 0.00 0.00 76 1012.5
20200409025057 77 269 7.0 12.0 0.00 0.00 0.00 76 1012.4
20200409025024 77 293 6.0 12.0 0.00 0.00 0.00 76 1012.6
20200409024622 77 270 7.0 12.0 0.00 0.00 0.00 75 1012.4
20200409024522 77 292 7.0 12.0 0.00 0.00 0.00 75 1012.7
20200409024042 77 311 7.0 13.0 0.00 0.00 0.00 75 1012.4
20200409024023 78 277 6.0 13.0 0.00 0.00 0.00 75 1012.7
20200409023523 78 277 7.0 13.0 0.00 0.00 0.00 75 1012.6
20200409023520 78 309 7.0 13.0 0.00 0.00 0.00 75 1012.3
20200409023047 78 289 6.0 12.0 0.00 0.00 0.00 75 1012.5
20200409023008 78 281 7.0 12.0 0.00 0.00 0.00 75 1012.3
20200409022602 78 267 6.0 12.0 0.00 0.00 0.00 75 1012.3
20200409022530 78 270 7.0 12.0 0.00 0.00 0.00 74 1012.4
20200409022045 78 274 6.0 10.0 0.00 0.00 0.00 74 1012.1
20200409022023 78 297 6.0 10.0 0.00 0.00 0.00 74 1012.3
20200409021555 78 259 4.0 10.0 0.00 0.00 0.00 74 1012.2
20200409021028 78 302 4.0 11.0 0.00 0.00 0.00 73 1012.3
20200409021007 78 302 4.0 11.0 0.00 0.00 0.00 73 1012.2
20200409020556 78 294 7.0 11.0 0.00 0.00 0.00 73 1012.1
20200409020526 78 277 6.0 11.0 0.00 0.00 0.00 73 1012.2
20200409020141 78 282 4.0 9.0 0.00 0.00 0.00 73 1012.1
20200409020041 78 291 4.0 10.0 0.00 0.00 0.00 72 1012.2
20200409015522 79 280 4.0 10.0 0.00 0.00 0.00 72 1012.3
20200409015518 78 277 5.0 10.0 0.00 0.00 0.00 73 1012.0
20200409015028 79 273 4.0 11.0 0.00 0.00 0.00 72 1012.3
20200409015006 79 271 3.0 9.0 0.00 0.00 0.00 72 1012.0
20200409014605 79 292 5.0 11.0 0.00 0.00 0.00 72 1012.0
20200409014531 79 294 6.0 11.0 0.00 0.00 0.00 71 1012.3
20200409014042 79 302 7.0 11.0 0.00 0.00 0.00 72 1011.8
20200409014022 79 267 6.0 11.0 0.00 0.00 0.00 72 1012.1
20200409013528 79 313 4.0 9.0 0.00 0.00 0.00 72 1011.9
20200409013520 79 286 4.0 9.0 0.00 0.00 0.00 71 1012.2
20200409013102 79 270 5.0 10.0 0.00 0.00 0.00 71 1012.1
20200409013038 79 273 5.0 10.0 0.00 0.00 0.00 72 1011.7
20200409012523 79 294 4.0 10.0 0.00 0.00 0.00 72 1012.0
20200409012511 79 294 4.0 10.0 0.00 0.00 0.00 72 1011.5
20200409012053 79 306 4.0 8.0 0.00 0.00 0.00 73 1011.4
20200409012021 79 300 4.0 8.0 0.00 0.00 0.00 72 1011.6
20200409011552 79 270 4.0 7.0 0.00 0.00 0.00 73 1011.2
20200409011545 79 271 4.0 7.0 0.00 0.00 0.00 73 1011.5
20200409011035 79 296 2.0 6.0 0.00 0.00 0.00 73 1011.3
20200409011028 79 296 2.0 6.0 0.00 0.00 0.00 73 1011.0
20200409010523 79 280 2.0 6.0 0.00 0.00 0.00 72 1011.3
20200409010111 80 289 2.0 7.0 0.00 0.00 0.00 73 1011.0
20200409010038 80 274 2.0 7.0 0.00 0.00 0.00 72 1011.2
20200409005540 80 288 3.0 8.0 0.00 0.00 0.00 72 1010.9
20200409005522 80 277 3.0 9.0 0.00 0.00 0.00 71 1011.1
20200409005024 80 257 6.0 10.0 0.00 0.00 0.00 71 1010.8
20200409005020 80 265 5.0 10.0 0.00 0.00 0.00 71 1011.1
20200409004545 81 272 6.0 10.0 0.00 0.00 0.00 69 1011.1
20200409004517 81 268 6.0 10.0 0.00 0.00 0.00 70 1010.8
20200409004024 81 268 5.0 11.0 0.00 0.00 0.00 69 1011.0
20200409003548 81 314 6.0 11.0 0.00 0.00 0.00 69 1010.8
20200409003527 81 270 6.0 11.0 0.00 0.00 0.00 68 1011.0
20200409003115 81 288 6.0 10.0 0.00 0.00 0.00 69 1010.8
20200409003034 81 308 6.0 10.0 0.00 0.00 0.00 68 1011.1
20200409002521 81 271 6.0 12.0 0.00 0.00 0.00 68 1010.8
20200409002021 81 254 7.0 12.0 0.00 0.00 0.00 68 1011.0
20200409002009 81 297 6.0 12.0 0.00 0.00 0.00 68 1010.7
20200409001613 81 273 5.0 11.0 0.00 0.00 0.00 68 1010.7
20200409001525 81 286 5.0 11.0 0.00 0.00 0.00 68 1011.0
20200409001045 82 265 4.0 9.0 0.00 0.00 0.00 69 1010.7
20200409001023 82 273 3.0 12.0 0.00 0.00 0.00 68 1010.9
20200409000522 82 267 6.0 12.0 0.00 0.00 0.00 67 1011.0
20200409000044 82 282 5.0 11.0 0.00 0.00 0.00 67 1011.0
20200409000036 82 273 5.0 11.0 0.00 0.00 0.00 68 1010.7
20200408235600 82 299 5.0 11.0 0.00 0.00 0.00 67 1010.6
20200408235522 82 265 6.0 11.0 0.00 0.00 0.00 66 1010.9
20200408235046 82 295 5.0 8.0 0.00 0.00 0.00 67 1010.6
20200408235020 82 291 4.0 8.0 0.00 0.00 0.00 66 1010.8
20200408234551 83 277 4.0 9.0 0.00 0.00 0.00 67 1010.5
20200408234525 83 275 3.0 9.0 0.00 0.00 0.00 66 1010.9
20200408234045 83 290 4.0 9.0 0.00 0.00 0.00 65 1010.9
20200408234022 83 300 5.0 9.0 0.00 0.00 0.00 66 1010.6
20200408233526 83 262 4.0 10.0 0.00 0.00 0.00 64 1010.9
20200408233509 83 301 4.0 10.0 0.00 0.00 0.00 65 1010.7
20200408233127 83 281 3.0 11.0 0.00 0.00 0.00 64 1010.8
20200408233040 83 281 4.0 11.0 0.00 0.00 0.00 64 1011.0
20200408232547 84 262 7.0 12.0 0.00 0.00 0.00 64 1010.8
20200408232520 84 277 6.0 12.0 0.00 0.00 0.00 64 1011.1
20200408232035 84 286 5.0 12.0 0.00 0.00 0.00 63 1010.8
20200408232031 84 284 5.0 13.0 0.00 0.00 0.00 63 1011.1
20200408231622 84 259 5.0 13.0 0.00 0.00 0.00 63 1011.1
20200408231544 84 278 4.0 13.0 0.00 0.00 0.00 63 1010.8
20200408231026 84 279 5.0 12.0 0.00 0.00 0.00 63 1011.1
20200408231010 84 271 6.0 12.0 0.00 0.00 0.00 63 1010.8
20200408230606 84 289 6.0 12.0 0.00 0.00 0.00 64 1010.7
20200408230526 84 300 7.0 12.0 0.00 0.00 0.00 63 1011.0
20200408230106 84 275 4.0 9.0 0.00 0.00 0.00 63 1010.6
20200408230030 84 278 4.0 9.0 0.00 0.00 0.00 63 1010.9
20200408225526 85 275 5.0 9.0 0.00 0.00 0.00 62 1010.9
20200408225522 85 271 5.0 9.0 0.00 0.00 0.00 63 1010.6
20200408225023 85 272 4.0 8.0 0.00 0.00 0.00 61 1010.8
20200408225008 85 282 5.0 8.0 0.00 0.00 0.00 62 1010.6
20200408224709 85 287 4.0 12.0 0.00 0.00 0.00 62 1010.5
20200408224611 85 290 3.0 12.0 0.00 0.00 0.00 62 1010.8
20200408224044 85 259 6.0 12.0 0.00 0.00 0.00 61 1010.4
20200408224023 85 270 7.0 12.0 0.00 0.00 0.00 61 1010.7
20200408223531 85 288 4.0 10.0 0.00 0.00 0.00 61 1010.5
20200408223526 85 270 5.0 10.0 0.00 0.00 0.00 61 1010.8
20200408223046 85 275 4.0 9.0 0.00 0.00 0.00 61 1010.7
20200408223039 85 263 4.0 9.0 0.00 0.00 0.00 62 1010.4
20200408222534 85 293 4.0 11.0 0.00 0.00 0.00 61 1010.7
20200408222510 85 314 4.0 11.0 0.00 0.00 0.00 62 1010.5
20200408222059 85 286 4.0 11.0 0.00 0.00 0.00 61 1010.5
20200408222025 85 278 4.0 11.0 0.00 0.00 0.00 61 1010.8
20200408221602 85 279 6.0 14.0 0.00 0.00 0.00 60 1010.4
20200408221530 85 283 7.0 16.0 0.00 0.00 0.00 60 1010.7
20200408221034 86 300 9.0 16.0 0.00 0.00 0.00 59 1010.4
20200408221023 86 300 7.0 16.0 0.00 0.00 0.00 59 1010.6
20200408220528 86 249 8.0 13.0 0.00 0.00 0.00 59 1010.7
20200408220508 86 273 8.0 13.0 0.00 0.00 0.00 61 1010.4
20200408220145 86 270 8.0 13.0 0.00 0.00 0.00 59 1010.4
20200408220034 86 265 6.0 12.0 0.00 0.00 0.00 59 1010.7
20200408215542 86 295 3.0 12.0 0.00 0.00 0.00 60 1010.4
20200408215525 86 297 5.0 12.0 0.00 0.00 0.00 60 1010.7
20200408215034 86 300 5.0 10.0 0.00 0.00 0.00 60 1010.4
20200408215025 86 300 5.0 10.0 0.00 0.00 0.00 60 1010.6
20200408214555 86 309 6.0 10.0 0.00 0.00 0.00 59 1010.6
20200408214526 86 331 6.0 10.0 0.00 0.00 0.00 60 1010.4
20200408214027 86 295 5.0 14.0 0.00 0.00 0.00 58 1010.6
20200408214003 86 270 5.0 14.0 0.00 0.00 0.00 58 1010.4
20200408213607 86 285 7.0 14.0 0.00 0.00 0.00 58 1010.4
20200408213524 86 269 7.0 14.0 0.00 0.00 0.00 57 1010.7
20200408213125 86 289 6.0 11.0 0.00 0.00 0.00 57 1010.4
20200408213106 86 263 5.0 13.0 0.00 0.00 0.00 56 1010.6
20200408212535 86 280 5.0 13.0 0.00 0.00 0.00 57 1010.4
20200408212524 86 279 5.0 13.0 0.00 0.00 0.00 56 1010.6
20200408212023 86 279 8.0 15.0 0.00 0.00 0.00 57 1010.7
20200408212013 86 259 8.0 15.0 0.00 0.00 0.00 58 1010.5
20200408211611 86 261 12.0 15.0 0.00 0.00 0.00 57 1010.7
20200408211053 86 271 7.0 13.0 0.00 0.00 0.00 57 1010.5
20200408211035 86 278 7.0 13.0 0.00 0.00 0.00 57 1010.8
20200408210526 86 279 7.0 11.0 0.00 0.00 0.00 57 1010.6
20200408210521 86 269 7.0 11.0 0.00 0.00 0.00 56 1010.9
20200408210054 86 301 6.0 13.0 0.00 0.00 0.00 57 1010.9
20200408210028 86 290 6.0 13.0 0.00 0.00 0.00 58 1010.6
20200408205521 86 276 7.0 13.0 0.00 0.00 0.00 56 1010.9
20200408205501 86 275 8.0 13.0 0.00 0.00 0.00 57 1010.6
20200408205050 86 272 6.0 9.0 0.00 0.00 0.00 59 1010.8
20200408205024 86 274 5.0 9.0 0.00 0.00 0.00 58 1011.0
20200408204555 86 275 5.0 10.0 0.00 0.00 0.00 58 1011.1
20200408204542 86 275 6.0 9.0 0.00 0.00 0.00 58 1010.8
20200408204029 85 271 3.0 10.0 0.00 0.00 0.00 58 1011.2
20200408203523 85 265 6.0 10.0 0.00 0.00 0.00 60 1011.2
20200408203511 85 261 6.0 9.0 0.00 0.00 0.00 60 1010.9
20200408203110 85 273 5.0 10.0 0.00 0.00 0.00 59 1011.3
20200408202555 85 325 6.0 11.0 0.00 0.00 0.00 59 1011.0
20200408202525 85 262 5.0 10.0 0.00 0.00 0.00 58 1011.2
20200408202039 85 272 6.0 11.0 0.00 0.00 0.00 59 1011.1
20200408202022 85 335 6.0 10.0 0.00 0.00 0.00 59 1011.4
20200408201547 86 300 6.0 10.0 0.00 0.00 0.00 59 1011.2
20200408201533 86 296 6.0 10.0 0.00 0.00 0.00 59 1011.3
20200408201024 85 326 5.0 9.0 0.00 0.00 0.00 59 1011.4
20200408201009 85 293 5.0 9.0 0.00 0.00 0.00 60 1011.2
20200408200602 85 260 5.0 10.0 0.00 0.00 0.00 61 1011.3
20200408200522 85 276 5.0 12.0 0.00 0.00 0.00 59 1011.6
20200408200031 85 304 5.0 12.0 0.00 0.00 0.00 58 1011.4
20200408200026 86 306 6.0 12.0 0.00 0.00 0.00 58 1011.6
20200408195522 85 272 3.0 13.0 0.00 0.00 0.00 59 1011.7
20200408195046 85 290 9.0 14.0 0.00 0.00 0.00 58 1011.6
20200408195028 85 269 9.0 14.0 0.00 0.00 0.00 58 1011.5
20200408194623 85 265 9.0 14.0 0.00 0.00 0.00 58 1011.8
20200408194022 86 270 6.0 14.0 0.00 0.00 0.00 59 1011.9
20200408193552 86 319 6.0 11.0 0.00 0.00 0.00 59 1011.8
20200408193524 86 352 6.0 11.0 0.00 0.00 0.00 59 1012.0
20200408193038 85 313 5.0 16.0 0.00 0.00 0.00 58 1012.2
20200408192524 85 280 8.0 16.0 0.00 0.00 0.00 59 1012.2
20200408192058 85 247 7.0 15.0 0.00 0.00 0.00 61 1012.0
20200408192036 85 257 6.0 10.0 0.00 0.00 0.00 61 1012.2
20200408191746 85 274 6.0 10.0 0.00 0.00 0.00 60 1012.0
20200408191604 85 262 4.0 12.0 0.00 0.00 0.00 59 1012.1
20200408191032 85 250 5.0 27.0 0.00 0.00 0.00 60 1012.0
20200408191027 85 259 5.0 27.0 0.00 0.00 0.00 59 1012.1
20200408190535 86 329 8.0 27.0 0.00 0.00 0.00 61 1012.2
20200408190516 86 303 8.0 27.0 0.00 0.00 0.00 61 1012.0
20200408190042 85 288 5.0 13.0 0.00 0.00 0.00 59 1012.2
20200408190002 85 244 5.0 13.0 0.00 0.00 0.00 59 1012.1
20200408185551 85 324 5.0 13.0 0.00 0.00 0.00 59 1012.1
20200408185522 85 271 4.0 13.0 0.00 0.00 0.00 59 1012.4
20200408185040 85 249 6.0 13.0 0.00 0.00 0.00 61 1012.2
20200408185030 85 304 8.0 13.0 0.00 0.00 0.00 60 1012.4
20200408184553 85 307 6.0 13.0 0.00 0.00 0.00 60 1012.5
20200408184041 85 21 6.0 13.0 0.00 0.00 0.00 61 1012.6
20200408183524 84 283 5.0 15.0 0.00 0.00 0.00 61 1012.6
20200408183102 84 259 8.0 18.0 0.00 0.00 0.00 61 1012.7
20200408183025 85 257 8.0 18.0 0.00 0.00 0.00 61 1012.6
20200408182523 85 285 10.0 18.0 0.00 0.00 0.00 61 1012.9
20200408182502 85 290 9.0 18.0 0.00 0.00 0.00 61 1012.7
20200408182116 85 281 10.0 17.0 0.00 0.00 0.00 63 1012.7
20200408182024 85 275 9.0 17.0 0.00 0.00 0.00 61 1013.0
20200408181658 85 260 10.0 15.0 0.00 0.00 0.00 60 1012.8
20200408181541 85 257 9.0 15.0 0.00 0.00 0.00 60 1013.0
20200408181029 85 294 6.0 16.0 0.00 0.00 0.00 63 1012.8
20200408181025 85 286 7.0 16.0 0.00 0.00 0.00 62 1013.1
20200408180532 84 294 9.0 16.0 0.00 0.00 0.00 62 1013.3
20200408180503 84 254 9.0 16.0 0.00 0.00 0.00 62 1012.9
20200408180114 84 249 6.0 14.0 0.00 0.00 0.00 63 1013.0
20200408180043 84 270 5.0 14.0 0.00 0.00 0.00 62 1013.3
20200408175537 84 257 10.0 14.0 0.00 0.00 0.00 62 1013.1
20200408175522 84 265 9.0 14.0 0.00 0.00 0.00 62 1013.3
20200408175029 84 274 6.0 16.0 0.00 0.00 0.00 64 1013.2
20200408174628 83 294 10.0 18.0 0.00 0.00 0.00 62 1013.4
20200408174547 83 294 9.0 18.0 0.00 0.00 0.00 62 1013.2
20200408174021 83 263 8.0 15.0 0.00 0.00 0.00 62 1013.5
20200408173548 83 280 4.0 15.0 0.00 0.00 0.00 62 1013.3
20200408173524 83 261 5.0 15.0 0.00 0.00 0.00 63 1013.6
20200408173037 83 293 5.0 15.0 0.00 0.00 0.00 62 1013.4
20200408173030 83 335 6.0 15.0 0.00 0.00 0.00 64 1013.6
20200408172525 83 270 7.0 14.0 0.00 0.00 0.00 63 1013.7
20200408172523 83 250 7.0 14.0 0.00 0.00 0.00 64 1013.4
20200408172024 82 273 7.0 15.0 0.00 0.00 0.00 63 1013.7
20200408172010 82 263 7.0 15.0 0.00 0.00 0.00 64 1013.5
20200408171704 82 263 10.0 15.0 0.00 0.00 0.00 63 1013.5
20200408171622 82 276 10.0 15.0 0.00 0.00 0.00 62 1013.9
20200408171047 82 260 7.0 13.0 0.00 0.00 0.00 63 1013.6
20200408171021 82 244 4.0 11.0 0.00 0.00 0.00 64 1014.0
20200408170526 82 291 7.0 11.0 0.00 0.00 0.00 63 1014.1
20200408170524 82 291 7.0 11.0 0.00 0.00 0.00 63 1013.7
20200408170123 82 288 5.0 11.0 0.00 0.00 0.00 64 1014.2
20200408170012 82 300 5.0 11.0 0.00 0.00 0.00 65 1013.8
20200408165605 81 311 6.0 12.0 0.00 0.00 0.00 65 1013.9
20200408165524 81 291 4.0 12.0 0.00 0.00 0.00 65 1014.2
20200408165105 81 322 7.0 14.0 0.00 0.00 0.00 64 1013.9
20200408165022 81 294 7.0 14.0 0.00 0.00 0.00 63 1014.3
20200408164554 80 281 10.0 14.0 0.00 0.00 0.00 66 1014.0
20200408164530 80 274 11.0 14.0 0.00 0.00 0.00 65 1014.3
20200408164024 80 274 10.0 16.0 0.00 0.00 0.00 66 1014.5
20200408164021 80 275 9.0 16.0 0.00 0.00 0.00 67 1014.2
20200408163525 80 286 9.0 16.0 0.00 0.00 0.00 65 1014.5
20200408163511 80 262 9.0 16.0 0.00 0.00 0.00 66 1014.2
20200408163157 80 279 4.0 14.0 0.00 0.00 0.00 65 1014.3
20200408163041 80 295 5.0 14.0 0.00 0.00 0.00 64 1014.6
20200408162555 80 255 5.0 14.0 0.00 0.00 0.00 65 1014.3
20200408162521 80 285 7.0 14.0 0.00 0.00 0.00 64 1014.6
20200408162038 80 309 7.0 11.0 0.00 0.00 0.00 67 1014.4
20200408162025 80 314 6.0 12.0 0.00 0.00 0.00 66 1014.7
20200408161646 80 277 7.0 13.0 0.00 0.00 0.00 67 1014.8
20200408161533 80 271 7.0 13.0 0.00 0.00 0.00 68 1014.5
20200408161037 79 248 6.0 14.0 0.00 0.00 0.00 67 1014.8
20200408161010 79 256 6.0 14.0 0.00 0.00 0.00 69 1014.5
20200408160556 79 247 7.0 15.0 0.00 0.00 0.00 69 1014.6
20200408160549 79 263 8.0 15.0 0.00 0.00 0.00 71 1014.8
20200408160106 79 253 11.0 15.0 0.00 0.00 0.00 69 1014.6
20200408160033 79 250 10.0 15.0 0.00 0.00 0.00 68 1014.9
20200408155524 79 244 8.0 15.0 0.00 0.00 0.00 70 1015.0
20200408155519 79 257 9.0 15.0 0.00 0.00 0.00 70 1014.7
20200408155024 79 282 6.0 12.0 0.00 0.00 0.00 66 1015.0
20200408155005 80 279 6.0 12.0 0.00 0.00 0.00 68 1014.8
20200408154651 79 285 6.0 12.0 0.00 0.00 0.00 67 1014.8
20200408154558 79 274 5.0 11.0 0.00 0.00 0.00 67 1015.0
20200408154048 79 313 5.0 13.0 0.00 0.00 0.00 70 1014.8
20200408154026 79 278 5.0 13.0 0.00 0.00 0.00 70 1015.1
20200408153538 79 267 7.0 15.0 0.00 0.00 0.00 68 1015.1
20200408153529 79 267 7.0 13.0 0.00 0.00 0.00 69 1014.9
20200408153108 79 38 7.0 15.0 0.00 0.00 0.00 67 1015.1
20200408153059 79 294 7.0 15.0 0.00 0.00 0.00 68 1014.9
20200408152521 79 269 5.0 13.0 0.00 0.00 0.00 67 1015.1
20200408152502 79 274 5.0 13.0 0.00 0.00 0.00 68 1014.9
20200408152101 79 282 6.0 13.0 0.00 0.00 0.00 69 1014.8
20200408152026 79 300 8.0 13.0 0.00 0.00 0.00 68 1015.2
20200408151553 79 331 6.0 12.0 0.00 0.00 0.00 69 1015.2
20200408151542 79 301 7.0 12.0 0.00 0.00 0.00 69 1014.9
20200408151033 78 275 7.0 12.0 0.00 0.00 0.00 71 1014.9
20200408151021 78 275 7.0 12.0 0.00 0.00 0.00 71 1015.2
20200408150534 78 302 6.0 16.0 0.00 0.00 0.00 72 1015.2
20200408150502 78 355 5.0 16.0 0.00 0.00 0.00 72 1015.0
20200408150151 78 355 5.0 16.0 0.00 0.00 0.00 71 1014.9
20200408150039 78 277 6.0 16.0 0.00 0.00 0.00 71 1015.1
20200408145539 77 273 8.0 12.0 0.00 0.00 0.00 72 1014.9
20200408145523 77 275 8.0 14.0 0.00 0.00 0.00 72 1015.2
20200408145026 77 296 5.0 15.0 0.00 0.00 0.00 74 1014.9
20200408145024 77 292 7.0 15.0 0.00 0.00 0.00 74 1015.1
20200408144601 77 290 7.0 15.0 0.00 0.00 0.00 72 1015.1
20200408144513 77 306 7.0 15.0 0.00 0.00 0.00 73 1014.8
20200408144022 77 265 8.0 18.0 0.00 0.00 0.00 72 1015.0
20200408143607 77 281 9.0 18.0 0.00 0.00 0.00 73 1014.8
20200408143522 77 286 8.0 18.0 0.00 0.00 0.00 72 1015.0
20200408143107 77 320 7.0 11.0 0.00 0.00 0.00 73 1014.7
20200408143051 77 284 7.0 11.0 0.00 0.00 0.00 73 1014.9
20200408142529 76 279 4.0 11.0 0.00 0.00 0.00 74 1014.7
20200408142523 76 248 5.0 11.0 0.00 0.00 0.00 73 1014.9
20200408142032 76 349 6.0 12.0 0.00 0.00 0.00 74 1015.0
20200408142011 76 269 6.0 12.0 0.00 0.00 0.00 75 1014.8
20200408141538 76 272 6.0 13.0 0.00 0.00 0.00 74 1015.0
20200408141048 76 265 8.0 13.0 0.00 0.00 0.00 74 1014.7
20200408141021 76 288 8.0 13.0 0.00 0.00 0.00 73 1014.9
20200408140530 75 261 7.0 13.0 0.00 0.00 0.00 74 1015.0
20200408140524 75 264 8.0 13.0 0.00 0.00 0.00 74 1014.7
20200408140051 75 273 8.0 13.0 0.00 0.00 0.00 74 1014.9
20200408140028 75 296 9.0 13.0 0.00 0.00 0.00 74 1014.7
20200408135604 75 300 6.0 12.0 0.00 0.00 0.00 76 1014.7
20200408135527 75 278 5.0 12.0 0.00 0.00 0.00 76 1014.9
20200408135047 75 247 9.0 12.0 0.00 0.00 0.00 76 1014.6
20200408135022 75 265 7.0 12.0 0.00 0.00 0.00 76 1014.8
20200408134554 74 259 8.0 13.0 0.00 0.00 0.00 76 1014.6
20200408134532 74 259 9.0 13.0 0.00 0.00 0.00 76 1014.8
20200408134101 74 267 8.0 13.0 0.00 0.00 0.00 76 1014.8
20200408134025 74 267 8.0 13.0 0.00 0.00 0.00 77 1014.7
20200408133523 74 275 6.0 12.0 0.00 0.00 0.00 76 1014.9
20200408133509 74 276 7.0 12.0 0.00 0.00 0.00 77 1014.6
20200408133424 74 288 5.0 12.0 0.00 0.00 0.00 78 1014.7
20200408133029 74 263 5.0 12.0 0.00 0.00 0.00 78 1014.8
20200408132555 74 292 5.0 12.0 0.00 0.00 0.00 78 1014.7
20200408132522 74 298 6.0 12.0 0.00 0.00 0.00 78 1014.8
20200408132032 73 279 7.0 11.0 0.00 0.00 0.00 79 1014.6
20200408132029 73 285 8.0 11.0 0.00 0.00 0.00 79 1014.9
20200408131555 73 298 4.0 12.0 0.00 0.00 0.00 80 1014.6
20200408131548 73 264 6.0 12.0 0.00 0.00 0.00 79 1014.8
20200408131022 73 273 8.0 12.0 0.00 0.00 0.00 80 1014.8
20200408131005 73 269 8.0 12.0 0.00 0.00 0.00 81 1014.5
20200408130555 73 259 7.0 10.0 0.00 0.00 0.00 82 1014.5
20200408130525 73 262 6.0 10.0 0.00 0.00 0.00 82 1014.7
20200408130123 73 252 6.0 10.0 0.00 0.00 0.00 84 1014.4
20200408130107 72 265 6.0 10.0 0.00 0.00 0.00 83 1014.6
20200408125526 72 248 6.0 8.0 0.00 0.00 0.00 84 1014.5
20200408125524 72 274 6.0 8.0 0.00 0.00 0.00 84 1014.4
20200408125024 72 261 3.0 8.0 0.00 0.00 0.00 87 1014.5
20200408125006 72 293 3.0 8.0 0.00 0.00 0.00 87 1014.3
20200408124721 72 261 5.0 8.0 0.00 0.00 0.00 87 1014.3
20200408124525 71 269 5.0 8.0 0.00 0.00 0.00 87 1014.5
20200408124037 71 271 5.0 8.0 0.00 0.00 0.00 89 1014.3
20200408124024 71 265 4.0 8.0 0.00 0.00 0.00 88 1014.4
20200408123522 71 264 6.0 8.0 0.00 0.00 0.00 90 1014.6
20200408123518 71 281 6.0 8.0 0.00 0.00 0.00 90 1014.4
20200408123028 71 267 5.0 8.0 0.00 0.00 0.00 90 1014.5
20200408123004 71 267 5.0 8.0 0.00 0.00 0.00 91 1014.3
20200408122558 70 263 4.0 7.0 0.00 0.00 0.00 92 1014.2
20200408122525 70 271 3.0 7.0 0.00 0.00 0.00 92 1014.4
20200408122040 70 282 3.0 8.0 0.00 0.00 0.00 94 1014.1
20200408122028 70 281 2.0 8.0 0.00 0.00 0.00 93 1014.3
20200408121542 70 275 5.0 8.0 0.00 0.00 0.00 93 1014.0
20200408121530 70 275 6.0 8.0 0.00 0.00 0.00 93 1014.3
20200408121023 70 271 5.0 8.0 0.00 0.00 0.00 93 1014.2
20200408121020 70 260 5.0 8.0 0.00 0.00 0.00 94 1014.0
20200408120536 70 289 3.0 7.0 0.00 0.00 0.00 94 1014.2
20200408120129 70 264 4.0 6.0 0.00 0.00 0.00 95 1013.9
20200408120042 70 267 3.0 7.0 0.00 0.00 0.00 95 1014.1
20200408115525 69 252 3.0 7.0 0.00 0.00 0.00 95 1013.9
20200408115522 69 259 3.0 7.0 0.00 0.00 0.00 95 1014.2
20200408115024 69 263 3.0 6.0 0.00 0.00 0.00 95 1014.2
20200408115015 69 284 2.0 5.0 0.00 0.00 0.00 95 1013.9
20200408114618 69 296 3.0 6.0 0.00 0.00 0.00 96 1013.9
20200408114528 69 276 3.0 4.0 0.00 0.00 0.00 95 1014.1
20200408114047 69 275 2.0 6.0 0.00 0.00 0.00 96 1013.8
20200408114023 69 271 1.0 6.0 0.00 0.00 0.00 95 1014.1
20200408113534 69 294 2.0 6.0 0.00 0.00 0.00 96 1013.7
20200408113526 69 294 2.0 7.0 0.00 0.00 0.00 95 1014.0
20200408113046 69 244 3.0 8.0 0.00 0.00 0.00 96 1013.6
20200408112541 69 271 5.0 8.0 0.00 0.00 0.00 96 1014.0
20200408112508 69 252 5.0 8.0 0.00 0.00 0.00 96 1013.6
20200408112058 69 263 4.0 8.0 0.00 0.00 0.00 96 1013.5
20200408112025 69 278 3.0 8.0 0.00 0.00 0.00 95 1013.8
20200408111707 69 250 4.0 8.0 0.00 0.00 0.00 96 1013.4
20200408111658 69 269 4.0 8.0 0.00 0.00 0.00 95 1013.8
20200408111032 69 246 4.0 7.0 0.00 0.00 0.00 96 1013.3
20200408111024 69 275 4.0 7.0 0.00 0.00 0.00 96 1013.6
20200408110528 69 274 3.0 7.0 0.00 0.00 0.00 96 1013.2
20200408110520 69 263 3.0 7.0 0.00 0.00 0.00 95 1013.5
20200408110101 69 250 3.0 6.0 0.00 0.00 0.00 95 1013.5
20200408105545 69 252 3.0 7.0 0.00 0.00 0.00 96 1013.0
20200408105523 69 261 3.0 7.0 0.00 0.00 0.00 95 1013.5
20200408105037 69 263 4.0 7.0 0.00 0.00 0.00 95 1013.0
20200408105024 69 261 4.0 7.0 0.00 0.00 0.00 95 1013.3
20200408104555 69 234 5.0 8.0 0.00 0.00 0.00 95 1013.0
20200408104550 69 241 5.0 8.0 0.00 0.00 0.00 95 1013.2
20200408104023 69 244 5.0 8.0 0.00 0.00 0.00 95 1013.4
20200408104010 70 251 5.0 8.0 0.00 0.00 0.00 96 1013.1
20200408103555 69 240 5.0 8.0 0.00 0.00 0.00 96 1013.0
20200408103524 69 254 5.0 8.0 0.00 0.00 0.00 95 1013.3
20200408103129 69 254 5.0 8.0 0.00 0.00 0.00 96 1013.0
20200408103039 69 250 5.0 8.0 0.00 0.00 0.00 95 1013.3
20200408102529 69 248 4.0 7.0 0.00 0.00 0.00 96 1012.9
20200408102526 69 248 4.0 7.0 0.00 0.00 0.00 96 1013.3
20200408102022 69 279 3.0 4.0 0.00 0.00 0.00 95 1013.2
20200408102016 69 281 2.0 4.0 0.00 0.00 0.00 96 1012.9
20200408101534 69 275 2.0 4.0 0.00 0.00 0.00 95 1013.2
20200408101507 69 285 2.0 4.0 0.00 0.00 0.00 95 1012.9
20200408101106 69 281 1.0 3.0 0.00 0.00 0.00 95 1012.8
20200408101047 69 281 1.0 3.0 0.00 0.00 0.00 95 1013.1
20200408100528 69 292 1.0 5.0 0.00 0.00 0.00 95 1012.9
20200408100523 69 292 1.0 6.0 0.00 0.00 0.00 94 1013.1
20200408100113 69 290 3.0 6.0 0.00 0.00 0.00 94 1013.0
20200408100036 69 290 3.0 5.0 0.00 0.00 0.00 95 1012.8
20200408095525 69 247 3.0 6.0 0.00 0.00 0.00 94 1013.0
20200408095502 69 255 3.0 6.0 0.00 0.00 0.00 94 1012.7
20200408095051 69 250 3.0 6.0 0.00 0.00 0.00 95 1012.7
20200408095022 69 254 3.0 6.0 0.00 0.00 0.00 94 1012.9
20200408094549 69 250 4.0 7.0 0.00 0.00 0.00 95 1012.7
20200408094539 69 250 4.0 6.0 0.00 0.00 0.00 94 1013.0
20200408094035 69 236 4.0 7.0 0.00 0.00 0.00 94 1013.0
20200408094027 69 236 3.0 7.0 0.00 0.00 0.00 95 1012.7
20200408093534 69 242 4.0 7.0 0.00 0.00 0.00 94 1012.8
20200408093523 69 239 4.0 7.0 0.00 0.00 0.00 94 1013.0
20200408093119 69 240 4.0 8.0 0.00 0.00 0.00 94 1013.0
20200408092604 69 237 5.0 8.0 0.00 0.00 0.00 94 1012.8
20200408092521 69 240 5.0 8.0 0.00 0.00 0.00 94 1013.0
20200408091033 69 249 4.0 8.0 0.00 0.00 0.00 94 1013.2
20200408091016 69 232 5.0 8.0 0.00 0.00 0.00 94 1012.9
20200408090532 69 275 3.0 7.0 0.00 0.00 0.00 93 1013.2
20200408090136 70 265 4.0 7.0 0.00 0.00 0.00 93 1012.9
20200408090123 70 274 4.0 9.0 0.00 0.00 0.00 93 1013.1
20200408085527 70 261 5.0 9.0 0.00 0.00 0.00 93 1012.9
20200408085523 70 258 6.0 9.0 0.00 0.00 0.00 93 1013.1
20200408085022 70 258 5.0 8.0 0.00 0.00 0.00 93 1013.1
20200408085011 70 257 5.0 8.0 0.00 0.00 0.00 94 1012.9
20200408084559 70 232 3.0 6.0 0.00 0.00 0.00 93 1013.2
20200408084047 70 218 3.0 5.0 0.00 0.00 0.00 94 1012.9
20200408084032 70 211 2.0 5.0 0.00 0.00 0.00 93 1013.2
20200408083538 70 234 3.0 5.0 0.00 0.00 0.00 93 1012.9
20200408083528 70 204 3.0 5.0 0.00 0.00 0.00 93 1013.1
20200408083027 70 231 2.0 5.0 0.00 0.00 0.00 92 1013.0
20200408083012 70 230 2.0 5.0 0.00 0.00 0.00 93 1012.8
20200408082525 70 245 4.0 5.0 0.00 0.00 0.00 92 1013.0
20200408082049 70 217 4.0 5.0 0.00 0.00 0.00 93 1012.7
20200408082040 70 242 3.0 5.0 0.00 0.00 0.00 92 1012.9
20200408081023 70 250 5.0 7.0 0.00 0.00 0.00 91 1013.0
20200408081018 70 240 4.0 7.0 0.00 0.00 0.00 92 1012.9
20200408080523 71 233 5.0 8.0 0.00 0.00 0.00 92 1013.2
20200408080124 70 201 5.0 8.0 0.00 0.00 0.00 92 1013.1
20200408080052 70 204 5.0 8.0 0.00 0.00 0.00 92 1013.3
20200408075531 71 200 5.0 8.0 0.00 0.00 0.00 92 1013.1
20200408075523 71 197 5.0 9.0 0.00 0.00 0.00 91 1013.3
20200408075024 71 198 5.0 9.0 0.00 0.00 0.00 91 1013.3
20200408075019 71 191 5.0 9.0 0.00 0.00 0.00 91 1013.1
20200408074526 71 192 6.0 9.0 0.00 0.00 0.00 91 1013.3
20200408074515 71 210 6.0 9.0 0.00 0.00 0.00 91 1013.1
20200408074059 71 211 7.0 9.0 0.00 0.00 0.00 91 1013.1
20200408074024 71 205 6.0 9.0 0.00 0.00 0.00 90 1013.4
20200408073550 71 207 6.0 8.0 0.00 0.00 0.00 91 1013.2
20200408073524 71 204 5.0 8.0 0.00 0.00 0.00 91 1013.5
20200408073051 71 197 5.0 7.0 0.00 0.00 0.00 91 1013.2
20200408073039 71 190 4.0 7.0 0.00 0.00 0.00 91 1013.5
20200408072556 71 186 5.0 8.0 0.00 0.00 0.00 91 1013.7
20200408072517 71 192 5.0 8.0 0.00 0.00 0.00 91 1013.4
20200408072037 71 205 5.0 8.0 0.00 0.00 0.00 90 1013.7
20200408072004 71 200 6.0 8.0 0.00 0.00 0.00 91 1013.5
20200408071645 71 193 5.0 7.0 0.00 0.00 0.00 91 1013.6
20200408071523 71 196 5.0 7.0 0.00 0.00 0.00 90 1014.0
20200408071040 71 207 4.0 7.0 0.00 0.00 0.00 91 1013.9
20200408071020 71 208 4.0 7.0 0.00 0.00 0.00 91 1014.2
20200408070530 71 223 4.0 7.0 0.00 0.00 0.00 90 1014.3
20200408070111 71 213 3.0 5.0 0.00 0.00 0.00 90 1014.4
20200408070003 71 207 3.0 5.0 0.00 0.00 0.00 91 1014.1
20200408065552 71 175 3.0 5.0 0.00 0.00 0.00 90 1014.1
20200408065533 71 192 3.0 5.0 0.00 0.00 0.00 89 1014.4
20200408065047 71 186 3.0 5.0 0.00 0.00 0.00 90 1014.2
20200408065025 71 193 3.0 5.0 0.00 0.00 0.00 89 1014.5
20200408064740 72 184 3.0 5.0 0.00 0.00 0.00 90 1014.3
20200408064532 72 184 3.0 6.0 0.00 0.00 0.00 89 1014.7
20200408064020 72 202 3.0 6.0 0.00 0.00 0.00 89 1014.7
20200408064014 72 192 4.0 5.0 0.00 0.00 0.00 89 1014.4
20200408063521 72 198 3.0 5.0 0.00 0.00 0.00 90 1014.8
20200408063055 72 236 3.0 5.0 0.00 0.00 0.00 90 1014.7
20200408063038 72 235 2.0 5.0 0.00 0.00 0.00 89 1014.9
20200408062537 72 225 3.0 5.0 0.00 0.00 0.00 89 1014.7
20200408062523 72 221 3.0 5.0 0.00 0.00 0.00 89 1015.0
20200408062027 72 213 4.0 5.0 0.00 0.00 0.00 89 1014.6
20200408062021 72 211 4.0 5.0 0.00 0.00 0.00 88 1014.9
20200408061554 72 225 4.0 5.0 0.00 0.00 0.00 88 1015.1
20200408061517 72 219 4.0 5.0 0.00 0.00 0.00 88 1014.7
20200408061100 72 222 3.0 6.0 0.00 0.00 0.00 88 1014.9
20200408061026 72 217 3.0 6.0 0.00 0.00 0.00 89 1015.2
20200408060550 71 241 3.0 6.0 0.00 0.00 0.00 90 1015.0
20200408060521 71 240 3.0 6.0 0.00 0.00 0.00 89 1015.3
20200408060056 71 260 1.0 2.0 0.00 0.00 0.00 89 1015.2
20200408060041 71 260 1.0 4.0 0.00 0.00 0.00 88 1015.3
20200408055524 71 300 1.0 6.0 0.00 0.00 0.00 88 1015.5
20200408055522 71 300 1.0 7.0 0.00 0.00 0.00 88 1015.3
20200408055100 72 230 1.0 7.0 0.00 0.00 0.00 88 1015.3
20200408055024 72 257 2.0 7.0 0.00 0.00 0.00 88 1015.6
20200408054650 72 252 4.0 7.0 0.00 0.00 0.00 88 1015.3
20200408054524 72 256 4.0 7.0 0.00 0.00 0.00 88 1015.6
20200408054035 72 238 3.0 7.0 0.00 0.00 0.00 88 1015.3
20200408054022 72 244 4.0 7.0 0.00 0.00 0.00 87 1015.5
20200408053525 72 242 4.0 9.0 0.00 0.00 0.00 88 1015.6
20200408053521 72 265 4.0 9.0 0.00 0.00 0.00 88 1015.4
20200408053046 72 241 5.0 9.0 0.00 0.00 0.00 88 1015.5
20200408053025 72 242 5.0 9.0 0.00 0.00 0.00 87 1015.7
20200408052601 72 246 6.0 8.0 0.00 0.00 0.00 88 1015.5
20200408052521 72 247 5.0 8.0 0.00 0.00 0.00 87 1015.8
20200408052051 72 244 5.0 8.0 0.00 0.00 0.00 87 1015.5
20200408052035 72 235 5.0 8.0 0.00 0.00 0.00 87 1015.8
20200408051556 72 258 5.0 8.0 0.00 0.00 0.00 87 1015.6
20200408051539 72 242 5.0 8.0 0.00 0.00 0.00 87 1015.8
20200408051022 72 248 3.0 8.0 0.00 0.00 0.00 88 1016.1
20200408051019 72 262 4.0 7.0 0.00 0.00 0.00 88 1015.9